Location: ????????
(55.6189°N, 38.3031°E)
Time: 04:27:11
(UTC+00:00)

SL-16 R/B - Pass Details

Date: 01 March 2020
Orbit: 843 x 847 km, 71.0° (Epoch: 04 April)

Event Time Altitude Azimuth Distance (km) Brightness Sun altitude
Exits shadow 23:49:13 41° 32° (NNE) 1,221 3.3 -35.1°
Drops below altitude 10° 23:52:48 10° 34° (NE) 2,477 5.4 -34.7°
Sets 23:55:15 0° 35° (NE) 3,415 6.4 -34.5°
